Tracking 29033 objects as of 22-Jun-2024
HD Live streaming from Space Station
objects crossing your sky now

STARLINK-5746

Track STARLINK-5746 now!
10-day predictions
STARLINK-5746 is classified as:


NORAD ID: 56926
Int'l Code: 2023-083BC
Perigee: 565.5 km
Apogee: 567.0 km
Inclination: 43.0 °
Period: 95.8 minutes
Semi major axis: 6937 km
RCS: Unknown
Launch date: June 12, 2023
Source: United States (US)
Launch site: AIR FORCE EASTERN TEST RANGE (AFETR)
Your satellite tracking list
Your tracking list is empty




NASA's NSSDC Master Catalog

Two Line Element Set (TLE):
1 56926U 23083BC  24174.20857792  .00005909  00000-0  45229-3 0  9990
2 56926  43.0013 227.3072 0001124 267.8932  92.1781 15.02523553 56931
Source of the keplerian elements: AFSPC